DEWAE EDDG-ZZZZ

Flight info

Callsign DEWAE
Flight time N/A
Altitude
Route
Aircraft C172

Departure

Time 2026-04-16 10:58
Airport Münster Osnabrück Airport (EDDG)

Arrival

Time N/A
Airport ZZZZ
Time Latitude Longitude Altitude Speed Heading
2026-04-16 10:47 52.13106 7.68231 155 ft 0 kts 271°
2026-04-16 10:50 52.13106 7.68228 155 ft 0 kts 282°
2026-04-16 10:50 52.13106 7.68226 155 ft 1 kts 272°
2026-04-16 10:50 52.13107 7.68209 155 ft 3 kts 300°
2026-04-16 10:50 52.13138 7.68206 155 ft 4 kts
2026-04-16 10:51 52.13170 7.68213 155 ft 4 kts 40°
2026-04-16 10:51 52.13185 7.68280 155 ft 9 kts 71°
2026-04-16 10:51 52.13215 7.68347 155 ft 5 kts 343°
2026-04-16 10:51 52.13224 7.68339 155 ft 2 kts 335°
2026-04-16 10:52 52.13260 7.68360 155 ft 11 kts 46°
2026-04-16 10:52 52.13300 7.68517 155 ft 11 kts 54°
2026-04-16 10:52 52.13325 7.68657 155 ft 15 kts 72°
2026-04-16 10:52 52.13365 7.68836 158 ft 18 kts 70°
2026-04-16 10:53 52.13405 7.69032 158 ft 16 kts 76°
2026-04-16 10:53 52.13438 7.69186 158 ft 15 kts 71°
2026-04-16 10:53 52.13475 7.69364 158 ft 17 kts 75°
2026-04-16 10:53 52.13508 7.69542 158 ft 8 kts 82°
2026-04-16 10:54 52.13530 7.69625 158 ft 9 kts 69°
2026-04-16 10:54 52.13558 7.69757 158 ft 14 kts 69°
2026-04-16 10:54 52.13589 7.69909 158 ft 4 kts 70°
2026-04-16 10:54 52.13620 7.69998 156 ft 13 kts 39°
2026-04-16 10:55 52.13696 7.70026 155 ft 7 kts 308°
2026-04-16 10:55 52.13747 7.69985 155 ft 12 kts 328°
2026-04-16 10:55 52.13755 7.69869 156 ft 8 kts 249°
2026-04-16 10:55 52.13743 7.69808 157 ft 1 kts 252°
2026-04-16 10:56 52.13743 7.69806 157 ft 0 kts 251°
2026-04-16 10:56 52.13736 7.69775 158 ft 17 kts 249°
2026-04-16 10:56 52.13636 7.69312 158 ft 63 kts 250°
2026-04-16 10:57 52.13481 7.68631 310 ft 64 kts 249°
2026-04-16 10:57 52.13329 7.67973 470 ft 61 kts 245°
2026-04-16 10:57 52.13052 7.67570 652 ft 56 kts 178°
2026-04-16 10:57 52.12653 7.67877 736 ft 69 kts 148°
2026-04-16 10:58 52.12280 7.68415 861 ft 73 kts 126°
2026-04-16 10:58 52.12124 7.69150 1009 ft 76 kts 78°
2026-04-16 10:58 52.12366 7.69971 1100 ft 83 kts 52°
2026-04-16 10:58 52.12679 7.70784 1174 ft 89 kts 72°
2026-04-16 10:59 52.12886 7.71744 1284 ft 90 kts 64°
2026-04-16 10:59 52.13174 7.72638 1412 ft 88 kts 54°
2026-04-16 10:59 52.13493 7.73504 1523 ft 89 kts 52°
2026-04-16 10:59 52.13843 7.74338 1634 ft 90 kts 49°
2026-04-16 11:00 52.14312 7.74847 1770 ft 79 kts 352°
2026-04-16 11:00 52.14661 7.74326 1729 ft 75 kts 273°
2026-04-16 11:00 52.14501 7.73450 1259 ft 92 kts 250°
2026-04-16 11:00 52.14303 7.72462 857 ft 88 kts 250°
2026-04-16 11:01 52.14115 7.71565 559 ft 83 kts 247°
2026-04-16 11:01 52.13928 7.70711 330 ft 75 kts 251°
2026-04-16 11:01 52.13776 7.69953 202 ft 67 kts 252°
2026-04-16 11:01 52.13634 7.69293 158 ft 51 kts 243°
2026-04-16 11:02 52.13493 7.68626 233 ft 65 kts 251°
2026-04-16 11:02 52.13318 7.67945 389 ft 65 kts 242°
2026-04-16 11:02 52.13086 7.67297 524 ft 65 kts 234°
2026-04-16 11:02 52.12710 7.66977 671 ft 68 kts 172°
2026-04-16 11:03 52.12319 7.67420 819 ft 73 kts 133°
2026-04-16 11:03 52.12025 7.68109 937 ft 78 kts 117°
2026-04-16 11:03 52.12058 7.69773 1180 ft 87 kts 50°
2026-04-16 11:04 52.12398 7.70608 1269 ft 91 kts 57°
2026-04-16 11:04 52.12724 7.71514 1332 ft 96 kts 57°
2026-04-16 11:04 52.13070 7.72462 1276 ft 93 kts 63°
2026-04-16 11:04 52.13485 7.73175 1096 ft 90 kts 10°
2026-04-16 11:05 52.13938 7.72742 885 ft 81 kts 296°
2026-04-16 11:05 52.14136 7.71924 681 ft 78 kts 267°
2026-04-16 11:05 52.14013 7.71079 455 ft 74 kts 251°
2026-04-16 11:05 52.13843 7.70309 282 ft 72 kts 253°
2026-04-16 11:06 52.13686 7.69538 170 ft 69 kts 249°
2026-04-16 11:06 52.13539 7.68891 158 ft 61 kts 255°
2026-04-16 11:06 52.13383 7.68157 283 ft 67 kts 240°
2026-04-16 11:06 52.13227 7.67477 458 ft 63 kts 243°
2026-04-16 11:07 52.13086 7.66776 583 ft 67 kts 237°
2026-04-16 11:07 52.12624 7.66713 677 ft 83 kts 158°
2026-04-16 11:07 52.12082 7.67122 731 ft 91 kts 155°
2026-04-16 11:07 52.11582 7.67697 771 ft 84 kts 131°
2026-04-16 11:08 52.11454 7.68612 775 ft 82 kts 90°
2026-04-16 11:08 52.11572 7.69499 810 ft 80 kts 69°
2026-04-16 11:08 52.11788 7.70322 862 ft 80 kts 70°
2026-04-16 11:08 52.11995 7.71166 941 ft 79 kts 61°
2026-04-16 11:09 52.12163 7.72059 973 ft 84 kts 75°
2026-04-16 11:09 52.12344 7.72994 986 ft 90 kts 71°
2026-04-16 11:09 52.12546 7.73927 1039 ft 89 kts 63°
2026-04-16 11:09 52.13036 7.74558 1037 ft 90 kts
2026-04-16 11:10 52.13520 7.74183 988 ft 80 kts 304°
2026-04-16 11:10 52.13862 7.73492 935 ft 75 kts 298°
2026-04-16 11:10 52.14083 7.72706 777 ft 82 kts 282°
2026-04-16 11:10 52.14136 7.71758 542 ft 84 kts 254°
2026-04-16 11:11 52.13972 7.70885 379 ft 78 kts 246°
2026-04-16 11:11 52.13791 7.70066 231 ft 75 kts 252°
2026-04-16 11:11 52.13638 7.69312 161 ft 63 kts 248°
2026-04-16 11:11 52.13489 7.68683 158 ft 70 kts 253°
2026-04-16 11:12 52.13335 7.67941 333 ft 66 kts 244°
2026-04-16 11:12 52.13133 7.67301 504 ft 63 kts 237°
2026-04-16 11:12 52.12875 7.66735 670 ft 62 kts 223°
2026-04-16 11:12 52.12457 7.66622 749 ft 80 kts 150°
2026-04-16 11:13 52.12015 7.67311 781 ft 90 kts 135°
2026-04-16 11:13 52.11561 7.68010 889 ft 86 kts 153°
2026-04-16 11:13 52.11026 7.68317 1014 ft 82 kts 169°
2026-04-16 11:13 52.10466 7.68525 1099 ft 83 kts 174°
2026-04-16 11:14 52.09889 7.68632 1190 ft 81 kts 195°
2026-04-16 11:14 52.09471 7.68094 1259 ft 81 kts 237°
2026-04-16 11:14 52.09130 7.67339 1281 ft 85 kts 231°
2026-04-16 11:14 52.08751 7.66594 1315 ft 86 kts 231°
2026-04-16 11:15 52.08321 7.65867 1316 ft 89 kts 224°
2026-04-16 11:15 52.07882 7.65184 1359 ft 88 kts 224°
2026-04-16 11:15 52.07420 7.64468 1325 ft 93 kts 225°
2026-04-16 11:15 52.06921 7.63788 1338 ft 91 kts 222°
2026-04-16 11:16 52.06419 7.63153 1353 ft 92 kts 218°
2026-04-16 11:16 52.05896 7.62582 1378 ft 92 kts 216°
2026-04-16 11:16 52.05356 7.62057 1427 ft 88 kts 211°
2026-04-16 11:16 52.04803 7.61676 1508 ft 86 kts 204°
2026-04-16 11:17 52.04236 7.61320 1540 ft 87 kts 205°
2026-04-16 11:17 52.03656 7.60930 1543 ft 91 kts 208°
2026-04-16 11:17 52.03089 7.60472 1586 ft 87 kts 213°
2026-04-16 11:17 52.02559 7.60004 1627 ft 88 kts 215°
2026-04-16 11:18 52.02023 7.59493 1642 ft 90 kts 214°
2026-04-16 11:18 52.01471 7.58996 1647 ft 91 kts 212°
2026-04-16 11:18 52.00920 7.58450 1612 ft 94 kts 216°
2026-04-16 11:18 52.00361 7.57846 1542 ft 96 kts 215°
2026-04-16 11:19 51.99797 7.57247 1474 ft 97 kts 216°
2026-04-16 11:19 51.99223 7.56678 1441 ft 97 kts 214°
2026-04-16 11:19 51.98649 7.56093 1390 ft 97 kts 213°
2026-04-16 11:19 51.98056 7.55607 1392 ft 96 kts 210°
2026-04-16 11:20 51.97458 7.55121 1362 ft 97 kts 206°
2026-04-16 11:20 51.96798 7.54814 1282 ft 100 kts 193°
2026-04-16 11:20 51.96101 7.54719 1219 ft 101 kts 185°
2026-04-16 11:20 51.95390 7.54786 1180 ft 103 kts 178°
2026-04-16 11:21 51.94682 7.54979 1147 ft 104 kts 172°
2026-04-16 11:21 51.93983 7.55234 1132 ft 102 kts 171°
2026-04-16 11:21 51.93287 7.55497 1090 ft 103 kts 170°
2026-04-16 11:21 51.92580 7.55771 1047 ft 104 kts 169°
2026-04-16 11:22 51.91876 7.56063 995 ft 104 kts 168°
2026-04-16 11:22 51.91174 7.56396 964 ft 104 kts 164°
2026-04-16 11:22 51.90517 7.56769 992 ft 100 kts 163°
2026-04-16 11:22 51.89858 7.57133 1028 ft 97 kts 166°
2026-04-16 11:23 51.89208 7.57409 1061 ft 97 kts 171°
2026-04-16 11:23 51.88544 7.57615 1092 ft 96 kts 174°
2026-04-16 11:23 51.87875 7.57714 1100 ft 98 kts 180°
2026-04-16 11:23 51.87184 7.57783 1084 ft 100 kts 180°
2026-04-16 11:24 51.86475 7.57840 1055 ft 102 kts 181°
2026-04-16 11:24 51.85768 7.57952 1063 ft 101 kts 172°
2026-04-16 11:24 51.85093 7.58219 1135 ft 96 kts 164°
2026-04-16 11:24 51.84465 7.58633 1170 ft 99 kts 156°
2026-04-16 11:25 51.83861 7.59203 1167 ft 102 kts 147°
2026-04-16 11:25 51.83302 7.59921 1180 ft 102 kts 140°
2026-04-16 11:25 51.82766 7.60708 1188 ft 102 kts 141°
2026-04-16 11:25 51.82216 7.61424 1182 ft 103 kts 147°
2026-04-16 11:26 51.81600 7.62028 1189 ft 101 kts 151°
2026-04-16 11:26 51.81004 7.62642 1198 ft 100 kts 150°
2026-04-16 11:26 51.80380 7.63173 1180 ft 99 kts 161°
2026-04-16 11:26 51.79720 7.63506 1164 ft 99 kts 168°
2026-04-16 11:27 51.79044 7.63733 1159 ft 99 kts 171°
2026-04-16 11:27 51.78362 7.63940 1161 ft 98 kts 173°
2026-04-16 11:27 51.77703 7.64126 1195 ft 96 kts 171°
2026-04-16 11:27 51.77053 7.64340 1263 ft 91 kts 170°
2026-04-16 11:28 51.76429 7.64587 1286 ft 94 kts 168°
2026-04-16 11:28 51.75782 7.64833 1284 ft 97 kts 169°
2026-04-16 11:28 51.75138 7.65035 1316 ft 95 kts 174°
2026-04-16 11:28 51.74493 7.65152 1378 ft 91 kts 175°
2026-04-16 11:29 51.73840 7.65298 1381 ft 95 kts 174°
2026-04-16 11:29 51.73178 7.65495 1405 ft 96 kts 170°
2026-04-16 11:29 51.72538 7.65754 1425 ft 96 kts 167°
2026-04-16 11:29 51.71875 7.66079 1435 ft 98 kts 165°
2026-04-16 11:30 51.71262 7.66427 1499 ft 94 kts 162°
2026-04-16 11:30 51.70625 7.66784 1500 ft 96 kts 162°
2026-04-16 11:30 51.70002 7.67192 1508 ft 99 kts 158°
2026-04-16 11:30 51.69388 7.67645 1549 ft 97 kts 160°
2026-04-16 11:31 51.68745 7.67973 1597 ft 96 kts 167°
2026-04-16 11:31 51.68104 7.68225 1633 ft 95 kts 171°
2026-04-16 11:31 51.67466 7.68390 1678 ft 93 kts 174°
2026-04-16 11:31 51.66810 7.68551 1727 ft 93 kts 173°
2026-04-16 11:32 51.66188 7.68745 1798 ft 91 kts 170°
2026-04-16 11:32 51.65541 7.68894 1836 ft 93 kts 177°
2026-04-16 11:32 51.64881 7.68993 1849 ft 96 kts 176°
2026-04-16 11:32 51.64223 7.69145 1897 ft 95 kts 172°
2026-04-16 11:33 51.63561 7.69315 1888 ft 98 kts 176°
2026-04-16 11:33 51.62874 7.69326 1883 ft 98 kts 182°
2026-04-16 11:33 51.62184 7.69289 1891 ft 97 kts 187°
2026-04-16 11:33 51.61518 7.69240 1967 ft 91 kts 184°
2026-04-16 11:34 51.60889 7.69229 2037 ft 90 kts 181°
2026-04-16 11:34 51.60266 7.69268 2125 ft 88 kts 178°
2026-04-16 11:34 51.59648 7.69346 2187 ft 90 kts 177°
2026-04-16 11:34 51.59009 7.69490 2213 ft 95 kts 172°
2026-04-16 11:35 51.58368 7.69677 2285 ft 92 kts 175°
2026-04-16 11:35 51.57704 7.69738 2283 ft 97 kts 180°
2026-04-16 11:35 51.57024 7.69740 2301 ft 94 kts 188°
2026-04-16 11:35 51.56349 7.69613 2213 ft 99 kts 192°
2026-04-16 11:36 51.55695 7.69362 2118 ft 96 kts 199°
2026-04-16 11:36 51.55062 7.68963 1963 ft 101 kts 210°
2026-04-16 11:36 51.54512 7.68267 1818 ft 100 kts 225°
2026-04-16 11:36 51.54045 7.67474 1635 ft 98 kts 231°
2026-04-16 11:37 51.53683 7.66523 1324 ft 103 kts 245°
2026-04-16 11:37 51.53352 7.65521 1038 ft 99 kts 235°
2026-04-16 11:37 51.53025 7.64606 819 ft 93 kts 238°
2026-04-16 11:37 51.52707 7.63725 626 ft 88 kts 239°
2026-04-16 11:38 51.52422 7.62892 496 ft 85 kts 237°
2026-04-16 11:38 51.52134 7.62084 404 ft 77 kts 238°
2026-04-16 11:38 51.51905 7.61440 406 ft 70 kts 236°
2026-04-16 11:38 51.51647 7.60751 561 ft 68 kts 236°
2026-04-16 11:39 51.51355 7.60113 697 ft 68 kts 227°
2026-04-16 11:39 51.51017 7.59569 846 ft 68 kts 214°
2026-04-16 11:39 51.50542 7.59577 942 ft 75 kts 168°
2026-04-16 11:39 51.50147 7.60121 1015 ft 87 kts 100°
2026-04-16 11:40 51.50341 7.61052 1067 ft 93 kts 58°
2026-04-16 11:40 51.50702 7.61941 1098 ft 98 kts 56°
2026-04-16 11:40 51.51065 7.62866 1149 ft 97 kts 54°
2026-04-16 11:40 51.51438 7.63773 1213 ft 96 kts 52°
2026-04-16 11:41 51.51804 7.64672 1259 ft 98 kts 52°
2026-04-16 11:41 51.52327 7.65299 1219 ft 94 kts 11°
2026-04-16 11:41 51.52743 7.64741 1023 ft 90 kts 283°
2026-04-16 11:41 51.52707 7.63729 713 ft 91 kts 244°
2026-04-16 11:42 51.52424 7.62903 502 ft 80 kts 237°
2026-04-16 11:42 51.52153 7.62146 408 ft 75 kts 241°
2026-04-16 11:42 51.51909 7.61486 439 ft 69 kts 231°
2026-04-16 11:42 51.51673 7.60809 586 ft 70 kts 233°
2026-04-16 11:43 51.51390 7.60198 723 ft 71 kts 209°
2026-04-16 11:43 51.50950 7.60534 851 ft 76 kts 136°
2026-04-16 11:43 51.50717 7.61279 981 ft 80 kts 83°
2026-04-16 11:43 51.50932 7.62106 1083 ft 84 kts 55°
2026-04-16 11:44 51.51263 7.62914 1159 ft 89 kts 57°
2026-04-16 11:44 51.51611 7.63768 1212 ft 94 kts 51°
2026-04-16 11:44 51.51946 7.64609 1297 ft 88 kts 57°
2026-04-16 11:44 51.52285 7.65394 1351 ft 85 kts 45°
2026-04-16 11:45 51.52818 7.65759 1410 ft 85 kts
2026-04-16 11:45 51.53283 7.65343 1291 ft 85 kts 282°
2026-04-16 11:45 51.53035 7.64543 982 ft 85 kts 234°
2026-04-16 11:45 51.52730 7.63762 704 ft 82 kts 239°
2026-04-16 11:46 51.52454 7.62989 518 ft 79 kts 238°
2026-04-16 11:46 51.52189 7.62232 409 ft 73 kts 237°
2026-04-16 11:46 51.51972 7.61624 403 ft 51 kts 245°
2026-04-16 11:46 51.51833 7.61228 409 ft 33 kts 231°
2026-04-16 11:47 51.51732 7.60945 413 ft 27 kts 242°
2026-04-16 11:47 51.51642 7.60679 417 ft 24 kts 235°
2026-04-16 11:47 51.51605 7.60613 420 ft 1 kts 208°
2026-04-16 11:47 51.51579 7.60612 423 ft 5 kts 167°
2026-04-16 11:48 51.51545 7.60635 426 ft 7 kts 149°
2026-04-16 11:48 51.51525 7.60703 428 ft 8 kts 83°
2026-04-16 11:48 51.51539 7.60792 427 ft 5 kts 75°
2026-04-16 11:48 51.51543 7.60823 427 ft 2 kts 76°
2026-04-16 11:49 51.51557 7.60894 426 ft 9 kts 73°
2026-04-16 11:49 51.51571 7.60975 425 ft 4 kts 77°
2026-04-16 11:49 51.51572 7.61022 425 ft 0 kts 94°
2026-04-16 11:49 51.51540 7.61057 428 ft 6 kts 165°
2026-04-16 11:50 51.51494 7.61017 431 ft 11 kts 246°
2026-04-16 11:50 51.51440 7.60857 435 ft 20 kts 242°
2026-04-16 11:50 51.51364 7.60644 441 ft 23 kts 245°
2026-04-16 11:50 51.51282 7.60407 445 ft 23 kts 240°
2026-04-16 11:51 51.51207 7.60200 449 ft 12 kts 236°
2026-04-16 11:51 51.51176 7.60115 450 ft 10 kts 245°
2026-04-16 11:51 51.51129 7.59997 452 ft 10 kts 208°
2026-04-16 11:51 51.51083 7.60010 455 ft 5 kts 141°
2026-04-16 11:52 51.51077 7.60017 456 ft 0 kts 147°